| time (UTC) | temp F | wind direction | speed knots | gust knots | rain 1hr in | rain 24hr in | rain mn in | humidity % | barometer mb |
| 20260503224505 | 69 | 192 | 1.7 | 5.2 | 0.00 | 0.06 | 0.06 | 98 | 1018.3 |
| 20260503223603 | 68 | 191 | 1.7 | 5.2 | 0.00 | 0.06 | 0.06 | 98 | 1018.3 |
| 20260503222704 | 68 | 206 | 2.6 | 5.2 | 0.00 | 0.06 | 0.06 | 98 | 1018.4 |
| 20260503221804 | 67 | 204 | 1.7 | 4.3 | 0.01 | 0.06 | 0.06 | 98 | 1018.3 |
| 20260503220909 | 67 | 210 | 2.6 | 4.3 | 0.03 | 0.06 | 0.06 | 98 | 1018.2 |
| 20260503220010 | 66 | 215 | 1.7 | 3.5 | 0.06 | 0.06 | 0.06 | 98 | 1018.3 |
| 20260503215404 | 65 | 209 | 0.9 | 4.3 | 0.06 | 0.06 | 0.06 | 98 | 1018.2 |
| 20260503214505 | 65 | 219 | 0.9 | 4.3 | 0.06 | 0.06 | 0.06 | 98 | 1018.2 |
| 20260503213604 | 64 | 218 | 0.9 | 1.7 | 0.06 | 0.06 | 0.06 | 97 | 1018.1 |
| 20260503212709 | 64 | 215 | 1.7 | 3.5 | 0.06 | 0.06 | 0.06 | 98 | 1018.1 |
| 20260503212019 | 64 | 214 | 2.6 | 4.3 | 0.06 | 0.06 | 0.06 | 97 | 1018.1 |
| 20260503210903 | 64 | 222 | 0.9 | 3.5 | 0.02 | 0.02 | 0.02 | 98 | 1018.3 |
| 20260503210220 | 63 | 0 | 0.0 | 0.0 | 0.00 | 0.00 | 0.00 | 97 | 1018.2 |
| 20260503205404 | 63 | 247 | 0.0 | 1.7 | 0.00 | 0.00 | 0.00 | 98 | 1017.9 |
| 20260503204505 | 62 | 250 | 0.0 | 0.9 | 0.00 | 0.00 | 0.00 | 97 | 1018.0 |
| 20260503203604 | 62 | 250 | 0.0 | 1.7 | 0.00 | 0.00 | 0.00 | 97 | 1017.9 |
| 20260503202705 | 62 | 0 | 0.0 | 0.0 | 0.00 | 0.00 | 0.00 | 97 | 1017.7 |
| 20260503201813 | 62 | 251 | 0.0 | 1.7 | 0.00 | 0.00 | 0.00 | 97 | 1017.5 |
| 20260503200908 | 62 | 0 | 0.0 | 0.0 | 0.00 | 0.00 | 0.00 | 97 | 1017.5 |
| 20260503200022 | 62 | 0 | 0.0 | 0.0 | 0.00 | 0.00 | 0.00 | 97 | 1017.4 |
| 20260503195404 | 62 | 0 | 0.0 | 0.0 | 0.00 | 0.00 | 0.00 | 97 | 1017.3 |
| 20260503194506 | 62 | 0 | 0.0 | 0.0 | 0.00 | 0.00 | 0.00 | 97 | 1017.3 |
| 20260503193817 | 62 | 0 | 0.0 | 0.0 | 0.00 | 0.00 | 0.00 | 97 | 1017.3 |
| 20260503192704 | 62 | 340 | 0.0 | 1.7 | 0.00 | 0.00 | 0.00 | 97 | 1017.3 |
| 20260503191807 | 62 | 0 | 0.0 | 0.0 | 0.00 | 0.00 | 0.00 | 97 | 1017.1 |
| 20260503191118 | 62 | 0 | 0.0 | 0.0 | 0.00 | 0.00 | 0.00 | 97 | 1017.1 |
| 20260503190006 | 62 | 0 | 0.0 | 0.0 | 0.00 | 0.00 | 0.00 | 97 | 1017.1 |
| 20260503185412 | 62 | 0 | 0.0 | 0.0 | 0.00 | 0.00 | 0.00 | 97 | 1017.1 |
| 20260503184505 | 62 | 0 | 0.0 | 0.0 | 0.00 | 0.00 | 0.00 | 97 | 1017.1 |
| 20260503183611 | 62 | 0 | 0.0 | 0.0 | 0.00 | 0.00 | 0.00 | 97 | 1017.1 |
| 20260503182708 | 62 | 0 | 0.0 | 0.0 | 0.00 | 0.00 | 0.00 | 97 | 1017.1 |
| 20260503181808 | 62 | 0 | 0.0 | 0.0 | 0.00 | 0.00 | 0.00 | 97 | 1017.1 |
| 20260503180909 | 62 | 0 | 0.0 | 0.0 | 0.00 | 0.00 | 0.00 | 97 | 1017.1 |
| 20260503180005 | 62 | 0 | 0.0 | 0.0 | 0.00 | 0.00 | 0.00 | 97 | 1017.0 |
| 20260503175404 | 62 | 0 | 0.0 | 0.0 | 0.00 | 0.00 | 0.00 | 97 | 1017.0 |
| 20260503174515 | 62 | 0 | 0.0 | 0.0 | 0.00 | 0.00 | 0.00 | 97 | 1017.1 |
| 20260503173608 | 62 | 0 | 0.0 | 0.0 | 0.00 | 0.00 | 0.00 | 97 | 1017.1 |
| 20260503172704 | 62 | 0 | 0.0 | 0.0 | 0.00 | 0.00 | 0.00 | 97 | 1017.1 |
| 20260503170913 | 62 | 0 | 0.0 | 0.0 | 0.00 | 0.00 | 0.00 | 96 | 1017.1 |
| 20260503150905 | 63 | 0 | 0.0 | 0.0 | 0.00 | 0.01 | 0.00 | 96 | 1018.5 |
| 20260503150226 | 63 | 0 | 0.0 | 0.0 | 0.00 | 0.01 | 0.00 | 96 | 1018.3 |
| 20260503130904 | 63 | 0 | 0.0 | 0.0 | 0.00 | 0.01 | 0.01 | 95 | 1019.1 |
| 20260503110220 | 64 | 0 | 0.0 | 0.0 | 0.00 | 0.01 | 0.01 | 94 | 1019.6 |
| 20260503081117 | 70 | 0 | 0.0 | 0.0 | 0.00 | 0.02 | 0.01 | 82 | 1018.8 |
| 20260503072708 | 72 | 79 | 0.0 | 1.7 | 0.00 | 0.02 | 0.01 | 77 | 1018.3 |
| 20260503071804 | 73 | 70 | 0.0 | 3.5 | 0.00 | 0.02 | 0.01 | 76 | 1018.2 |
| 20260503070904 | 73 | 80 | 0.9 | 3.5 | 0.00 | 0.02 | 0.01 | 76 | 1018.1 |
| 20260503054505 | 76 | 48 | 0.9 | 5.2 | 0.00 | 0.02 | 0.01 | 72 | 1017.9 |
| 20260503053606 | 76 | 61 | 0.9 | 3.5 | 0.00 | 0.02 | 0.01 | 70 | 1018.0 |
| 20260503052704 | 77 | 74 | 2.6 | 7.8 | 0.00 | 0.02 | 0.01 | 68 | 1018.0 |
| 20260503051809 | 79 | 74 | 1.7 | 5.2 | 0.00 | 0.02 | 0.01 | 66 | 1018.0 |
| 20260503051118 | 78 | 53 | 2.6 | 8.7 | 0.00 | 0.02 | 0.01 | 64 | 1017.9 |
| 20260503050006 | 79 | 56 | 4.3 | 8.7 | 0.00 | 0.02 | 0.01 | 65 | 1018.0 |
| 20260503045623 | 79 | 55 | 3.5 | 7.8 | 0.00 | 0.02 | 0.01 | 64 | 1017.9 |
| 20260503044505 | 78 | 73 | 3.5 | 6.1 | 0.00 | 0.02 | 0.01 | 64 | 1018.0 |
| 20260503043818 | 79 | 63 | 4.3 | 8.7 | 0.00 | 0.02 | 0.01 | 62 | 1018.0 |
| 20260503042704 | 80 | 71 | 2.6 | 7.8 | 0.00 | 0.02 | 0.01 | 63 | 1018.1 |
| 20260503041804 | 79 | 74 | 2.6 | 8.7 | 0.00 | 0.02 | 0.01 | 58 | 1018.0 |
| 20260503040908 | 79 | 65 | 2.6 | 7.8 | 0.00 | 0.02 | 0.01 | 66 | 1017.9 |
| 20260503040006 | 77 | 81 | 3.5 | 8.7 | 0.00 | 0.02 | 0.01 | 67 | 1018.1 |
| 20260503035409 | 79 | 91 | 3.5 | 8.7 | 0.00 | 0.03 | 0.01 | 61 | 1018.2 |
| 20260503034505 | 79 | 82 | 3.5 | 5.2 | 0.00 | 0.03 | 0.01 | 65 | 1018.0 |
| 20260503033604 | 79 | 94 | 2.6 | 6.1 | 0.00 | 0.03 | 0.01 | 65 | 1018.1 |
| 20260503032713 | 79 | 85 | 2.6 | 5.2 | 0.00 | 0.03 | 0.01 | 67 | 1018.1 |
| 20260503031804 | 77 | 93 | 2.6 | 7.8 | 0.00 | 0.03 | 0.01 | 68 | 1018.2 |
| 20260503030903 | 78 | 105 | 2.6 | 6.1 | 0.00 | 0.03 | 0.01 | 66 | 1018.4 |
| 20260503030019 | 80 | 48 | 3.5 | 9.6 | 0.00 | 0.03 | 0.01 | 67 | 1018.4 |
| 20260503025404 | 79 | 61 | 3.5 | 9.6 | 0.00 | 0.03 | 0.01 | 66 | 1018.6 |
| 20260503024510 | 76 | 106 | 2.6 | 6.1 | 0.00 | 0.03 | 0.01 | 72 | 1018.8 |
| 20260503023605 | 78 | 116 | 2.6 | 6.1 | 0.00 | 0.03 | 0.01 | 70 | 1018.8 |
| 20260503022704 | 77 | 118 | 1.7 | 4.3 | 0.00 | 0.03 | 0.01 | 70 | 1018.9 |
| 20260503021809 | 79 | 76 | 0.9 | 4.3 | 0.00 | 0.03 | 0.01 | 68 | 1019.0 |
| 20260503021117 | 77 | 76 | 0.9 | 4.3 | 0.00 | 0.03 | 0.01 | 72 | 1019.1 |
| 20260503020005 | 76 | 96 | 1.7 | 6.1 | 0.00 | 0.03 | 0.01 | 72 | 1019.3 |
| 20260503015404 | 76 | 99 | 1.7 | 6.1 | 0.00 | 0.03 | 0.01 | 71 | 1019.6 |
| 20260503014505 | 76 | 105 | 2.6 | 7.8 | 0.00 | 0.03 | 0.01 | 72 | 1019.5 |
| 20260503013604 | 77 | 112 | 2.6 | 7.8 | 0.00 | 0.03 | 0.01 | 71 | 1019.6 |
| 20260503012703 | 77 | 146 | 0.9 | 5.2 | 0.00 | 0.03 | 0.01 | 72 | 1019.8 |
| 20260503011804 | 78 | 97 | 1.7 | 4.3 | 0.00 | 0.03 | 0.01 | 72 | 1020.2 |
| 20260503010904 | 77 | 94 | 1.7 | 4.3 | 0.00 | 0.03 | 0.01 | 74 | 1020.2 |
| 20260503010005 | 76 | 125 | 0.9 | 5.2 | 0.00 | 0.03 | 0.01 | 75 | 1020.4 |
| 20260503005409 | 76 | 149 | 2.6 | 7.8 | 0.00 | 0.03 | 0.01 | 73 | 1020.4 |
| 20260503004509 | 77 | 161 | 1.7 | 4.3 | 0.00 | 0.03 | 0.01 | 73 | 1020.5 |
| 20260503003603 | 77 | 161 | 2.6 | 8.7 | 0.00 | 0.03 | 0.01 | 73 | 1020.6 |
| 20260503002918 | 76 | 149 | 2.6 | 8.7 | 0.00 | 0.03 | 0.01 | 75 | 1020.7 |
| 20260503001808 | 75 | 131 | 2.6 | 8.7 | 0.00 | 0.09 | 0.01 | 76 | 1020.7 |
| 20260503000908 | 75 | 122 | 0.9 | 6.1 | 0.00 | 0.09 | 0.01 | 77 | 1020.8 |
| 20260503000010 | 76 | 174 | 1.7 | 5.2 | 0.00 | 0.09 | 0.01 | 77 | 1020.7 |
| 20260502235404 | 76 | 203 | 1.7 | 4.3 | 0.00 | 0.09 | 0.01 | 77 | 1020.6 |
| 20260502234506 | 74 | 197 | 1.7 | 4.3 | 0.00 | 0.09 | 0.01 | 79 | 1020.8 |
| 20260502233818 | 74 | 195 | 2.6 | 5.2 | 0.00 | 0.09 | 0.01 | 78 | 1020.9 |
| 20260502232703 | 73 | 202 | 2.6 | 5.2 | 0.00 | 0.09 | 0.01 | 79 | 1021.0 |